• En España
  • Lista de países
  • Para 7 días
  • Temperatura del agua
  • Mapa Satelital
  • El tiempo en el mapa
  • Informadores
  • user-avatar
    Iniciar sesión

    Tiempo cada hora Salta

    Hoy, 23 Mayo, Miércoles

    Tiempo Temperatura Precipitaciones Viento Presión Humedad
    00:00 +12°C° 0 mm 1 mps 652 mmHg 81%
    01:00 +11°C° 0 mm 1 mps 652 mmHg 82%
    02:00 +11°C° 0 mm 1 mps 652 mmHg 82%
    03:00 +11°C° 0 mm 1 mps 652 mmHg 81%
    04:00 +11°C° 0 mm 1 mps 652 mmHg 80%
    05:00 +10°C° 0 mm 1 mps 652 mmHg 78%
    06:00 +11°C° 0 mm 1 mps 652 mmHg 75%
    07:00 +12°C° 0 mm 1 mps 653 mmHg 71%
    08:00 +13°C° 0 mm 1 mps 653 mmHg 68%
    09:00 +15°C° 0 mm 1 mps 654 mmHg 61%
    10:00 +17°C° 0 mm 2 mps 654 mmHg 54%
    11:00 +18°C° 0 mm 2 mps 655 mmHg 47%
    12:00 +19°C° 0 mm 2 mps 655 mmHg 46%
    13:00 +20°C° 0 mm 2 mps 654 mmHg 44%
    14:00 +21°C° 0 mm 2 mps 654 mmHg 43%
    15:00 +20°C° 0 mm 2 mps 653 mmHg 48%
    16:00 +19°C° 0 mm 2 mps 653 mmHg 52%
    17:00 +18°C° 0 mm 2 mps 653 mmHg 57%
    18:00 +16°C° 0 mm 1 mps 653 mmHg 66%
    19:00 +14°C° 0 mm 1 mps 653 mmHg 74%
    20:00 +12°C° 0 mm 1 mps 653 mmHg 82%
    21:00 +12°C° 0 mm 1 mps 653 mmHg 82%
    22:00 +12°C° 0 mm 1 mps 653 mmHg 83%
    23:00 +12°C° 0 mm 1 mps 653 mmHg 84%

    Mañana, 24 Mayo, Jueves

    Tiempo Temperatura Precipitaciones Viento Presión Humedad
    00:00 +11°C° 0 mm 1 mps 653 mmHg 83%
    01:00 +11°C° 0 mm 1 mps 653 mmHg 82%
    02:00 +11°C° 0 mm 1 mps 653 mmHg 82%
    03:00 +11°C° 0 mm 1 mps 653 mmHg 81%
    04:00 +10°C° 0 mm 0 mps 653 mmHg 80%
    05:00 +10°C° 0 mm 0 mps 653 mmHg 79%
    06:00 +11°C° 0 mm 0 mps 653 mmHg 76%
    07:00 +12°C° 0 mm 1 mps 654 mmHg 72%
    08:00 +13°C° 0 mm 1 mps 654 mmHg 69%
    09:00 +15°C° 0 mm 1 mps 655 mmHg 62%
    10:00 +17°C° 0 mm 2 mps 656 mmHg 54%
    11:00 +19°C° 0 mm 2 mps 656 mmHg 47%
    12:00 +20°C° 0 mm 2 mps 656 mmHg 45%
    13:00 +21°C° 0 mm 2 mps 655 mmHg 44%
    14:00 +21°C° 0 mm 2 mps 654 mmHg 42%
    15:00 +20°C° 0 mm 2 mps 654 mmHg 47%
    16:00 +20°C° 0 mm 2 mps 653 mmHg 51%
    17:00 +19°C° 0 mm 2 mps 653 mmHg 56%
    18:00 +18°C° 0 mm 1 mps 653 mmHg 63%
    19:00 +15°C° 0 mm 1 mps 652 mmHg 70%
    20:00 +13°C° 0 mm 1 mps 652 mmHg 78%
    21:00 +12°C° 0 mm 1 mps 652 mmHg 77%
    22:00 +12°C° 0 mm 1 mps 652 mmHg 77%
    23:00 +12°C° 0 mm 1 mps 653 mmHg 77%

    Pasado mañana, 25 Mayo, Viernes

    Tiempo Temperatura Precipitaciones Viento Presión Humedad
    00:00 +12°C° 0 mm 1 mps 652 mmHg 75%
    01:00 +12°C° 0 mm 1 mps 652 mmHg 73%
    02:00 +12°C° 0 mm 1 mps 652 mmHg 71%
    03:00 +12°C° 0 mm 1 mps 652 mmHg 70%
    04:00 +12°C° 0 mm 1 mps 652 mmHg 70%
    05:00 +12°C° 0 mm 1 mps 652 mmHg 69%
    06:00 +12°C° 0 mm 1 mps 652 mmHg 66%
    07:00 +13°C° 0 mm 1 mps 653 mmHg 64%
    08:00 +14°C° 0 mm 1 mps 654 mmHg 62%
    09:00 +16°C° 0 mm 1 mps 654 mmHg 56%
    10:00 +19°C° 0 mm 1 mps 654 mmHg 50%
    11:00 +20°C° 0 mm 2 mps 655 mmHg 45%
    12:00 +21°C° 0 mm 2 mps 654 mmHg 42%
    13:00 +23°C° 0 mm 2 mps 654 mmHg 40%
    14:00 +23°C° 0 mm 2 mps 653 mmHg 38%
    15:00 +21°C° 0 mm 2 mps 652 mmHg 43%
    16:00 +21°C° 0 mm 2 mps 652 mmHg 47%
    17:00 +20°C° 0 mm 2 mps 651 mmHg 52%
    18:00 +19°C° 0 mm 1 mps 651 mmHg 59%
    19:00 +15°C° 0 mm 1 mps 651 mmHg 66%
    20:00 +13°C° 0 mm 1 mps 651 mmHg 72%
    21:00 +13°C° 0 mm 1 mps 651 mmHg 72%
    22:00 +13°C° 0 mm 1 mps 651 mmHg 72%
    23:00 +12°C° 0 mm 1 mps 651 mmHg 72%

    26 Mayo, Sábado

    Tiempo Temperatura Precipitaciones Viento Presión Humedad
    00:00 +12°C° 0 mm 1 mps 650 mmHg 70%
    01:00 +13°C° 0 mm 1 mps 650 mmHg 68%
    02:00 +13°C° 0 mm 1 mps 650 mmHg 66%
    03:00 +13°C° 0 mm 1 mps 650 mmHg 64%
    04:00 +13°C° 0 mm 1 mps 650 mmHg 61%
    05:00 +13°C° 0 mm 2 mps 650 mmHg 59%
    06:00 +13°C° 0 mm 2 mps 650 mmHg 57%
    07:00 +14°C° 0 mm 1 mps 651 mmHg 56%
    08:00 +15°C° 0 mm 1 mps 651 mmHg 54%
    09:00 +17°C° 0 mm 2 mps 651 mmHg 51%
    10:00 +18°C° 0 mm 2 mps 652 mmHg 48%
    11:00 +20°C° 0 mm 2 mps 652 mmHg 45%
    12:00 +21°C° 0 mm 2 mps 652 mmHg 43%
    13:00 +23°C° 0 mm 2 mps 651 mmHg 40%
    14:00 +25°C° 0 mm 2 mps 651 mmHg 38%
    15:00 +24°C° 0 mm 2 mps 650 mmHg 43%
    16:00 +23°C° 0 mm 2 mps 650 mmHg 49%
    17:00 +22°C° 0 mm 1 mps 650 mmHg 54%
    18:00 +20°C° 0 mm 1 mps 650 mmHg 61%
    19:00 +16°C° 0 mm 1 mps 650 mmHg 68%
    20:00 +14°C° 0 mm 1 mps 650 mmHg 75%
    21:00 +14°C° 0 mm 1 mps 650 mmHg 74%
    22:00 +14°C° 0 mm 1 mps 650 mmHg 73%
    23:00 +14°C° 0 mm 1 mps 650 mmHg 72%

    27 Mayo, Domingo

    Tiempo Temperatura Precipitaciones Viento Presión Humedad
    00:00 +14°C° 0 mm 1 mps 650 mmHg 69%
    01:00 +14°C° 0 mm 1 mps 650 mmHg 66%
    02:00 +14°C° 0 mm 1 mps 650 mmHg 64%
    03:00 +14°C° 0 mm 1 mps 650 mmHg 63%
    04:00 +14°C° 0 mm 1 mps 650 mmHg 63%
    05:00 +13°C° 0 mm 1 mps 650 mmHg 63%
    06:00 +14°C° 0 mm 1 mps 651 mmHg 61%
    07:00 +15°C° 0 mm 1 mps 652 mmHg 59%
    08:00 +16°C° 0 mm 1 mps 653 mmHg 57%
    09:00 +19°C° 0 mm 1 mps 654 mmHg 53%
    10:00 +22°C° 0 mm 1 mps 654 mmHg 49%
    11:00 +24°C° 0 mm 2 mps 655 mmHg 44%
    12:00 +24°C° 0 mm 2 mps 654 mmHg 45%
    13:00 +25°C° 0 mm 2 mps 654 mmHg 45%
    14:00 +25°C° 0 mm 2 mps 653 mmHg 45%
    15:00 +24°C° 0 mm 2 mps 653 mmHg 50%
    16:00 +23°C° 0 mm 2 mps 652 mmHg 56%
    17:00 +21°C° 0 mm 2 mps 652 mmHg 62%
    18:00 +20°C° 0 mm 2 mps 652 mmHg 68%
    19:00 +19°C° 0 mm 1 mps 652 mmHg 74%
    20:00 +18°C° 0 mm 1 mps 652 mmHg 81%
    21:00 +16°C° 0 mm 1 mps 652 mmHg 79%
    22:00 +16°C° 0 mm 1 mps 651 mmHg 78%
    23:00 +16°C° 0 mm 1 mps 651 mmHg 76%

    28 Mayo, Lunes

    Tiempo Temperatura Precipitaciones Viento Presión Humedad
    00:00 +16°C° 0 mm 1 mps 651 mmHg 73%
    01:00 +16°C° 0 mm 2 mps 651 mmHg 70%
    02:00 +16°C° 0 mm 2 mps 650 mmHg 66%
    03:00 +16°C° 0 mm 2 mps 650 mmHg 66%
    04:00 +16°C° 0 mm 1 mps 650 mmHg 65%
    05:00 +16°C° 0 mm 1 mps 650 mmHg 64%
    06:00 +17°C° 0 mm 2 mps 650 mmHg 62%
    07:00 +17°C° 0 mm 2 mps 651 mmHg 60%
    08:00 +18°C° 0 mm 2 mps 651 mmHg 58%
    09:00 +19°C° 0 mm 2 mps 651 mmHg 56%
    10:00 +21°C° 0 mm 2 mps 651 mmHg 54%
    11:00 +24°C° 0 mm 2 mps 651 mmHg 51%
    12:00 +24°C° 0 mm 3 mps 650 mmHg 50%
    13:00 +25°C° 0 mm 3 mps 650 mmHg 48%
    14:00 +26°C° 0 mm 3 mps 649 mmHg 47%
    15:00 +25°C° 0 mm 3 mps 649 mmHg 52%
    16:00 +24°C° 0 mm 2 mps 648 mmHg 57%
    17:00 +23°C° 0 mm 2 mps 648 mmHg 62%
    18:00 +21°C° 0 mm 2 mps 648 mmHg 63%
    19:00 +19°C° 0 mm 2 mps 648 mmHg 63%
    20:00 +18°C° 0 mm 2 mps 648 mmHg 64%
    21:00 +18°C° 0 mm 2 mps 648 mmHg 61%
    22:00 +18°C° 0 mm 2 mps 649 mmHg 57%
    23:00 +18°C° 0 mm 2 mps 649 mmHg 53%
    Mostrar más